| time (UTC) | temp F | wind direction | speed MPH | gust MPH | rain 1hr in | rain 24hr in | rain mn in | humidity % | barometer mb |
| 20260508175144 | 64 | 213 | 3.0 | 3.0 | 0.00 | 0.00 | 0.00 | 35 | 1004.9 |
| 20260508174642 | 65 | 332 | 3.0 | 6.0 | 0.00 | 0.00 | 0.00 | 35 | 1004.9 |
| 20260508174138 | 63 | 27 | 2.0 | 3.0 | 0.00 | 0.00 | 0.00 | 42 | 1004.9 |
| 20260508173635 | 62 | 183 | 1.0 | 1.0 | 0.00 | 0.00 | 0.00 | 39 | 1005.2 |
| 20260508173131 | 63 | 216 | 0.0 | 1.0 | 0.00 | 0.00 | 0.00 | 39 | 1005.2 |
| 20260508172628 | 62 | 200 | 2.0 | 2.0 | 0.00 | 0.00 | 0.00 | 38 | 1005.2 |
| 20260508172125 | 62 | 209 | 3.0 | 3.0 | 0.00 | 0.00 | 0.00 | 38 | 1005.2 |
| 20260508171621 | 62 | 178 | 2.0 | 3.0 | 0.00 | 0.00 | 0.00 | 39 | 1005.2 |
| 20260508171118 | 61 | 172 | 0.0 | 1.0 | 0.00 | 0.00 | 0.00 | 38 | 1005.5 |
| 20260508170615 | 61 | 272 | 2.0 | 2.0 | 0.00 | 0.00 | 0.00 | 39 | 1005.2 |
| 20260508170113 | 62 | 131 | 1.0 | 1.0 | 0.00 | 0.00 | 0.00 | 38 | 1005.5 |
| 20260508165610 | 61 | 185 | 2.0 | 2.0 | 0.00 | 0.00 | 0.00 | 38 | 1005.5 |
| 20260508165107 | 61 | 186 | 1.0 | 1.0 | 0.00 | 0.00 | 0.00 | 42 | 1005.5 |
| 20260508164603 | 60 | 164 | 3.0 | 3.0 | 0.00 | 0.00 | 0.00 | 38 | 1005.9 |
| 20260508164100 | 60 | 193 | 1.0 | 2.0 | 0.00 | 0.00 | 0.00 | 39 | 1005.5 |
| 20260508163557 | 60 | 196 | 3.0 | 6.0 | 0.00 | 0.00 | 0.00 | 38 | 1005.9 |
| 20260508163054 | 60 | 231 | 5.0 | 6.0 | 0.00 | 0.00 | 0.00 | 38 | 1005.5 |
| 20260508162551 | 61 | 224 | 4.0 | 5.0 | 0.00 | 0.00 | 0.00 | 37 | 1005.9 |
| 20260508162048 | 61 | 223 | 4.0 | 6.0 | 0.00 | 0.00 | 0.00 | 37 | 1005.9 |
| 20260508161545 | 62 | 178 | 2.0 | 2.0 | 0.00 | 0.00 | 0.00 | 38 | 1006.2 |
| 20260508161042 | 62 | 184 | 6.0 | 7.0 | 0.00 | 0.00 | 0.00 | 37 | 1005.9 |
| 20260508160540 | 61 | 172 | 3.0 | 3.0 | 0.00 | 0.00 | 0.00 | 37 | 1005.9 |
| 20260508160037 | 60 | 237 | 1.0 | 1.0 | 0.00 | 0.00 | 0.00 | 39 | 1006.2 |
| 20260508155534 | 60 | 245 | 3.0 | 3.0 | 0.00 | 0.00 | 0.00 | 40 | 1006.2 |
| 20260508155031 | 61 | 211 | 2.0 | 2.0 | 0.00 | 0.00 | 0.00 | 39 | 1006.2 |
| 20260508154528 | 63 | 189 | 2.0 | 3.0 | 0.00 | 0.00 | 0.00 | 37 | 1006.2 |
| 20260508154025 | 62 | 239 | 3.0 | 3.0 | 0.00 | 0.00 | 0.00 | 39 | 1006.2 |
| 20260508153522 | 61 | 278 | 3.0 | 3.0 | 0.00 | 0.00 | 0.00 | 41 | 1006.2 |
| 20260508153018 | 60 | 195 | 0.0 | 1.0 | 0.00 | 0.00 | 0.00 | 39 | 1006.2 |
| 20260508152515 | 59 | 117 | 3.0 | 3.0 | 0.00 | 0.00 | 0.00 | 40 | 1006.6 |
| 20260508152011 | 58 | 244 | 1.0 | 2.0 | 0.00 | 0.00 | 0.00 | 45 | 1006.6 |
| 20260508151508 | 59 | 168 | 0.0 | 0.0 | 0.00 | 0.00 | 0.00 | 43 | 1006.6 |
| 20260508151004 | 58 | 310 | 3.0 | 3.0 | 0.00 | 0.00 | 0.00 | 41 | 1006.9 |
| 20260508150502 | 57 | 320 | 4.0 | 5.0 | 0.00 | 0.00 | 0.00 | 42 | 1006.6 |
| 20260508145956 | 57 | 279 | 2.0 | 2.0 | 0.00 | 0.00 | 0.00 | 43 | 1006.9 |
| 20260508145454 | 56 | 239 | 1.0 | 2.0 | 0.00 | 0.00 | 0.00 | 45 | 1006.9 |
| 20260508144950 | 55 | 191 | 2.0 | 2.0 | 0.00 | 0.00 | 0.00 | 43 | 1006.9 |
| 20260508144448 | 56 | 349 | 2.0 | 2.0 | 0.00 | 0.00 | 0.00 | 43 | 1006.9 |
| 20260508143945 | 55 | 177 | 3.0 | 3.0 | 0.00 | 0.00 | 0.00 | 45 | 1006.9 |
| 20260508143443 | 55 | 175 | 1.0 | 1.0 | 0.00 | 0.00 | 0.00 | 46 | 1006.9 |
| 20260508142939 | 54 | 176 | 1.0 | 2.0 | 0.00 | 0.00 | 0.00 | 46 | 1006.9 |
| 20260508142436 | 54 | 204 | 2.0 | 2.0 | 0.00 | 0.00 | 0.00 | 46 | 1007.2 |
| 20260508141932 | 54 | 174 | 1.0 | 1.0 | 0.00 | 0.00 | 0.00 | 45 | 1007.2 |
| 20260508141429 | 53 | 174 | 0.0 | 0.0 | 0.00 | 0.00 | 0.00 | 45 | 1007.2 |
| 20260508140927 | 53 | 176 | 1.0 | 1.0 | 0.00 | 0.00 | 0.00 | 47 | 1007.2 |
| 20260508140424 | 52 | 188 | 1.0 | 1.0 | 0.00 | 0.00 | 0.00 | 46 | 1007.2 |
| 20260508135919 | 51 | 127 | 1.0 | 1.0 | 0.00 | 0.00 | 0.00 | 47 | 1007.7 |
| 20260508135416 | 51 | 165 | 0.0 | 0.0 | 0.00 | 0.00 | 0.00 | 47 | 1007.2 |
| 20260508134913 | 51 | 116 | 1.0 | 1.0 | 0.00 | 0.00 | 0.00 | 48 | 1007.7 |
| 20260508134409 | 50 | 168 | 0.0 | 0.0 | 0.00 | 0.00 | 0.00 | 52 | 1007.7 |
| 20260508133906 | 50 | 152 | 1.0 | 1.0 | 0.00 | 0.00 | 0.00 | 48 | 1007.7 |
| 20260508133404 | 50 | 188 | 0.0 | 1.0 | 0.00 | 0.00 | 0.00 | 49 | 1007.7 |
| 20260508132900 | 50 | 161 | 1.0 | 1.0 | 0.00 | 0.00 | 0.00 | 49 | 1007.7 |
| 20260508132359 | 43 | 161 | 0.0 | 0.0 | 0.00 | 0.00 | 0.00 | 66 | 1007.7 |
| 20260508131855 | 43 | 161 | 0.0 | 0.0 | 0.00 | 0.00 | 0.00 | 66 | 1007.7 |
| 20260508131350 | 43 | 161 | 0.0 | 0.0 | 0.00 | 0.00 | 0.00 | 66 | 1007.7 |
| 20260508130847 | 43 | 161 | 0.0 | 0.0 | 0.00 | 0.00 | 0.00 | 66 | 1007.7 |
| 20260508130344 | 43 | 161 | 0.0 | 0.0 | 0.00 | 0.00 | 0.00 | 66 | 1008.0 |
| 20260508125840 | 43 | 159 | 0.0 | 0.0 | 0.00 | 0.00 | 0.00 | 65 | 1007.7 |
| 20260508125336 | 38 | 151 | 0.0 | 1.0 | 0.00 | 0.00 | 0.00 | 72 | 1008.0 |
| 20260508124834 | 38 | 151 | 0.0 | 1.0 | 0.00 | 0.00 | 0.00 | 72 | 1007.7 |
| 20260508124331 | 38 | 151 | 0.0 | 1.0 | 0.00 | 0.00 | 0.00 | 72 | 1007.7 |
| 20260508123829 | 38 | 151 | 0.0 | 1.0 | 0.00 | 0.00 | 0.00 | 72 | 1007.7 |
| 20260508123328 | 37 | 159 | 0.0 | 0.0 | 0.00 | 0.00 | 0.00 | 76 | 1007.7 |
| 20260508122824 | 33 | 160 | 0.0 | 0.0 | 0.00 | 0.00 | 0.00 | 82 | 1007.7 |
| 20260508122321 | 33 | 152 | 0.0 | 0.0 | 0.00 | 0.00 | 0.00 | 82 | 1007.2 |
| 20260508121818 | 32 | 152 | 1.0 | 1.0 | 0.00 | 0.00 | 0.00 | 83 | 1007.7 |
| 20260508121317 | 32 | 156 | 0.0 | 0.0 | 0.00 | 0.00 | 0.00 | 83 | 1007.7 |
| 20260508120813 | 31 | 154 | 0.0 | 0.0 | 0.00 | 0.00 | 0.00 | 84 | 1007.7 |
| 20260508120311 | 30 | 149 | 0.0 | 0.0 | 0.00 | 0.00 | 0.00 | 85 | 1007.7 |
| 20260508115808 | 30 | 144 | 1.0 | 1.0 | 0.00 | 0.00 | 0.00 | 85 | 1007.7 |
| 20260508115306 | 29 | 137 | 1.0 | 1.0 | 0.00 | 0.00 | 0.00 | 86 | 1007.7 |
| 20260508114802 | 28 | 140 | 1.0 | 1.0 | 0.00 | 0.00 | 0.00 | 86 | 1007.7 |
| 20260508114259 | 28 | 145 | 0.0 | 1.0 | 0.00 | 0.00 | 0.00 | 86 | 1007.7 |
| 20260508113755 | 28 | 148 | 0.0 | 1.0 | 0.00 | 0.00 | 0.00 | 87 | 1007.7 |
| 20260508113254 | 27 | 144 | 0.0 | 1.0 | 0.00 | 0.00 | 0.00 | 88 | 1007.7 |
| 20260508112750 | 28 | 146 | 1.0 | 1.0 | 0.00 | 0.00 | 0.00 | 88 | 1007.2 |
| 20260508112247 | 27 | 161 | 0.0 | 0.0 | 0.00 | 0.00 | 0.00 | 89 | 1007.7 |
| 20260508111743 | 27 | 161 | 0.0 | 0.0 | 0.00 | 0.00 | 0.00 | 89 | 1007.7 |
| 20260508111241 | 27 | 148 | 0.0 | 0.0 | 0.00 | 0.00 | 0.00 | 90 | 1007.7 |
| 20260508110738 | 26 | 144 | 0.0 | 0.0 | 0.00 | 0.00 | 0.00 | 89 | 1007.2 |
| 20260508110235 | 26 | 138 | 1.0 | 1.0 | 0.00 | 0.00 | 0.00 | 89 | 1007.2 |
| 20260508105730 | 26 | 137 | 1.0 | 1.0 | 0.00 | 0.00 | 0.00 | 89 | 1007.2 |
| 20260508105227 | 26 | 141 | 1.0 | 1.0 | 0.00 | 0.00 | 0.00 | 89 | 1007.2 |
| 20260508104724 | 26 | 143 | 1.0 | 1.0 | 0.00 | 0.00 | 0.00 | 89 | 1007.2 |
| 20260508104221 | 26 | 143 | 1.0 | 1.0 | 0.00 | 0.00 | 0.00 | 88 | 1007.2 |
| 20260508103718 | 26 | 143 | 1.0 | 1.0 | 0.00 | 0.00 | 0.00 | 88 | 1007.2 |
| 20260508103215 | 26 | 143 | 1.0 | 1.0 | 0.00 | 0.00 | 0.00 | 88 | 1007.2 |
| 20260508102712 | 26 | 143 | 1.0 | 1.0 | 0.00 | 0.00 | 0.00 | 88 | 1007.2 |
| 20260508102210 | 26 | 145 | 1.0 | 1.0 | 0.00 | 0.00 | 0.00 | 88 | 1007.2 |
| 20260508101707 | 26 | 145 | 1.0 | 1.0 | 0.00 | 0.00 | 0.00 | 88 | 1007.2 |
| 20260508101205 | 26 | 145 | 1.0 | 1.0 | 0.00 | 0.00 | 0.00 | 88 | 1007.2 |
| 20260508100702 | 26 | 145 | 1.0 | 1.0 | 0.00 | 0.00 | 0.00 | 88 | 1007.2 |
| 20260508100200 | 26 | 145 | 1.0 | 1.0 | 0.00 | 0.00 | 0.00 | 88 | 1007.2 |
| 20260508095656 | 26 | 145 | 1.0 | 1.0 | 0.00 | 0.00 | 0.00 | 88 | 1007.7 |
| 20260508095153 | 26 | 145 | 1.0 | 1.0 | 0.00 | 0.00 | 0.00 | 88 | 1007.2 |
| 20260508094650 | 27 | 145 | 1.0 | 1.0 | 0.00 | 0.00 | 0.00 | 86 | 1007.2 |
| 20260508094147 | 27 | 145 | 1.0 | 1.0 | 0.00 | 0.00 | 0.00 | 86 | 1007.2 |
| 20260508093644 | 27 | 145 | 1.0 | 1.0 | 0.00 | 0.00 | 0.00 | 86 | 1007.2 |
| 20260508093142 | 27 | 145 | 1.0 | 1.0 | 0.00 | 0.00 | 0.00 | 86 | 1007.2 |
| 20260508092639 | 27 | 145 | 1.0 | 1.0 | 0.00 | 0.00 | 0.00 | 86 | 1006.9 |
| 20260508092137 | 27 | 145 | 1.0 | 1.0 | 0.00 | 0.00 | 0.00 | 86 | 1007.2 |
| 20260508091634 | 27 | 145 | 1.0 | 1.0 | 0.00 | 0.00 | 0.00 | 86 | 1007.2 |
| 20260508091131 | 27 | 149 | 0.0 | 0.0 | 0.00 | 0.00 | 0.00 | 85 | 1006.9 |
| 20260508090629 | 27 | 149 | 0.0 | 0.0 | 0.00 | 0.00 | 0.00 | 85 | 1007.2 |
| 20260508090126 | 27 | 149 | 0.0 | 0.0 | 0.00 | 0.00 | 0.00 | 85 | 1007.2 |
| 20260508085622 | 27 | 151 | 1.0 | 1.0 | 0.00 | 0.00 | 0.00 | 85 | 1007.2 |
| 20260508085120 | 27 | 151 | 1.0 | 1.0 | 0.00 | 0.00 | 0.00 | 85 | 1007.2 |
| 20260508084616 | 27 | 151 | 1.0 | 1.0 | 0.00 | 0.00 | 0.00 | 85 | 1007.7 |
| 20260508084114 | 27 | 156 | 0.0 | 0.0 | 0.00 | 0.00 | 0.00 | 85 | 1007.7 |
| 20260508083610 | 27 | 156 | 0.0 | 0.0 | 0.00 | 0.00 | 0.00 | 85 | 1007.7 |
| 20260508083108 | 27 | 152 | 0.0 | 0.0 | 0.00 | 0.00 | 0.00 | 85 | 1007.7 |
| 20260508082603 | 27 | 150 | 1.0 | 1.0 | 0.00 | 0.00 | 0.00 | 85 | 1007.7 |
| 20260508082100 | 27 | 150 | 1.0 | 1.0 | 0.00 | 0.00 | 0.00 | 85 | 1007.7 |
| 20260508081552 | 27 | 150 | 1.0 | 1.0 | 0.00 | 0.00 | 0.00 | 85 | 1007.7 |
| 20260508081048 | 27 | 150 | 0.0 | 1.0 | 0.00 | 0.00 | 0.00 | 85 | 1007.7 |
| 20260508080546 | 27 | 151 | 0.0 | 1.0 | 0.00 | 0.00 | 0.00 | 85 | 1007.7 |
| 20260508080044 | 27 | 151 | 0.0 | 0.0 | 0.00 | 0.00 | 0.00 | 85 | 1007.7 |
| 20260508075540 | 27 | 152 | 0.0 | 0.0 | 0.00 | 0.00 | 0.00 | 85 | 1007.7 |
| 20260508075037 | 27 | 151 | 0.0 | 1.0 | 0.00 | 0.00 | 0.00 | 85 | 1007.7 |
| 20260508074535 | 27 | 151 | 0.0 | 0.0 | 0.00 | 0.00 | 0.00 | 84 | 1007.7 |
| 20260508074031 | 27 | 151 | 0.0 | 0.0 | 0.00 | 0.00 | 0.00 | 84 | 1007.7 |
| 20260508073529 | 27 | 144 | 1.0 | 1.0 | 0.00 | 0.00 | 0.00 | 84 | 1007.7 |
| 20260508073027 | 28 | 149 | 0.0 | 1.0 | 0.00 | 0.00 | 0.00 | 84 | 1007.7 |
| 20260508072522 | 28 | 148 | 0.0 | 0.0 | 0.00 | 0.00 | 0.00 | 83 | 1008.0 |
| 20260508072020 | 27 | 146 | 1.0 | 1.0 | 0.00 | 0.00 | 0.00 | 84 | 1008.0 |
| 20260508071517 | 27 | 149 | 0.0 | 1.0 | 0.00 | 0.00 | 0.00 | 84 | 1008.0 |
| 20260508071015 | 27 | 149 | 1.0 | 1.0 | 0.00 | 0.00 | 0.00 | 84 | 1007.7 |
| 20260508070512 | 28 | 154 | 0.0 | 0.0 | 0.00 | 0.00 | 0.00 | 84 | 1008.0 |
| 20260508070010 | 28 | 155 | 0.0 | 0.0 | 0.00 | 0.00 | 0.00 | 83 | 1008.0 |
| 20260508065508 | 28 | 155 | 0.0 | 0.0 | 0.00 | 0.00 | 0.00 | 83 | 1007.7 |
| 20260508065006 | 28 | 158 | 0.0 | 0.0 | 0.00 | 0.00 | 0.00 | 83 | 1007.7 |
| 20260508064503 | 28 | 145 | 1.0 | 1.0 | 0.00 | 0.00 | 0.00 | 83 | 1008.0 |
| 20260508064000 | 28 | 144 | 1.0 | 1.0 | 0.00 | 0.00 | 0.00 | 82 | 1008.0 |
| 20260508063458 | 28 | 154 | 1.0 | 1.0 | 0.00 | 0.00 | 0.00 | 82 | 1008.0 |
| 20260508062956 | 28 | 154 | 0.0 | 1.0 | 0.00 | 0.00 | 0.00 | 82 | 1008.0 |
| 20260508062453 | 28 | 152 | 0.0 | 0.0 | 0.00 | 0.00 | 0.00 | 82 | 1008.0 |
| 20260508061949 | 28 | 149 | 0.0 | 0.0 | 0.00 | 0.00 | 0.00 | 82 | 1008.0 |
| 20260508061448 | 28 | 137 | 1.0 | 1.0 | 0.00 | 0.00 | 0.00 | 82 | 1008.4 |
| 20260508060943 | 28 | 137 | 1.0 | 1.0 | 0.00 | 0.00 | 0.00 | 81 | 1008.4 |
| 20260508060441 | 28 | 147 | 1.0 | 1.0 | 0.00 | 0.00 | 0.00 | 81 | 1008.0 |
| 20260508055937 | 28 | 149 | 1.0 | 1.0 | 0.00 | 0.00 | 0.00 | 81 | 1008.4 |
| 20260508055434 | 28 | 156 | 0.0 | 0.0 | 0.00 | 0.00 | 0.00 | 81 | 1008.4 |
| 20260508054930 | 28 | 152 | 0.0 | 0.0 | 0.00 | 0.00 | 0.00 | 81 | 1008.4 |
| 20260508054428 | 29 | 147 | 0.0 | 0.0 | 0.00 | 0.00 | 0.00 | 81 | 1008.4 |
| 20260508053924 | 29 | 145 | 0.0 | 1.0 | 0.00 | 0.00 | 0.00 | 80 | 1008.4 |
| 20260508053421 | 29 | 138 | 1.0 | 1.0 | 0.00 | 0.00 | 0.00 | 80 | 1008.4 |
| 20260508052919 | 29 | 143 | 1.0 | 1.0 | 0.00 | 0.00 | 0.00 | 80 | 1008.7 |
| 20260508052416 | 29 | 148 | 0.0 | 0.0 | 0.00 | 0.00 | 0.00 | 80 | 1008.7 |
| 20260508051912 | 29 | 152 | 0.0 | 1.0 | 0.00 | 0.00 | 0.00 | 80 | 1008.7 |
| 20260508051408 | 30 | 151 | 0.0 | 1.0 | 0.00 | 0.00 | 0.00 | 79 | 1008.7 |
| 20260508050904 | 30 | 146 | 1.0 | 1.0 | 0.00 | 0.00 | 0.00 | 79 | 1008.4 |
| 20260508050402 | 30 | 149 | 1.0 | 1.0 | 0.00 | 0.00 | 0.00 | 78 | 1008.4 |
| 20260508045857 | 30 | 148 | 0.0 | 1.0 | 0.00 | 0.00 | 0.00 | 78 | 1008.7 |
| 20260508045355 | 30 | 147 | 0.0 | 1.0 | 0.00 | 0.00 | 0.00 | 77 | 1008.4 |
| 20260508044853 | 31 | 145 | 0.0 | 1.0 | 0.00 | 0.00 | 0.00 | 77 | 1008.7 |
| 20260508044349 | 31 | 133 | 1.0 | 1.0 | 0.00 | 0.00 | 0.00 | 77 | 1008.4 |
| 20260508043845 | 31 | 149 | 0.0 | 0.0 | 0.00 | 0.00 | 0.00 | 76 | 1008.7 |
| 20260508043343 | 31 | 145 | 1.0 | 1.0 | 0.00 | 0.00 | 0.00 | 76 | 1008.7 |
| 20260508042839 | 31 | 151 | 1.0 | 1.0 | 0.00 | 0.00 | 0.00 | 76 | 1008.4 |
| 20260508042337 | 32 | 154 | 0.0 | 1.0 | 0.00 | 0.00 | 0.00 | 75 | 1008.7 |
| 20260508041833 | 32 | 154 | 0.0 | 0.0 | 0.00 | 0.00 | 0.00 | 74 | 1008.7 |
| 20260508041330 | 33 | 166 | 0.0 | 0.0 | 0.00 | 0.00 | 0.00 | 74 | 1008.7 |
| 20260508040826 | 33 | 146 | 1.0 | 1.0 | 0.00 | 0.00 | 0.00 | 73 | 1008.7 |
| 20260508040324 | 33 | 146 | 1.0 | 1.0 | 0.00 | 0.00 | 0.00 | 73 | 1008.7 |
| 20260508035821 | 33 | 146 | 1.0 | 1.0 | 0.00 | 0.00 | 0.00 | 73 | 1008.7 |
| 20260508035318 | 33 | 146 | 1.0 | 1.0 | 0.00 | 0.00 | 0.00 | 72 | 1008.7 |
| 20260508034815 | 34 | 133 | 1.0 | 1.0 | 0.00 | 0.00 | 0.00 | 72 | 1008.7 |
| 20260508034312 | 34 | 142 | 1.0 | 1.0 | 0.00 | 0.00 | 0.00 | 71 | 1008.7 |
| 20260508033809 | 34 | 144 | 1.0 | 1.0 | 0.00 | 0.00 | 0.00 | 71 | 1009.0 |
| 20260508033307 | 34 | 147 | 1.0 | 1.0 | 0.00 | 0.00 | 0.00 | 71 | 1008.7 |
| 20260508032804 | 34 | 147 | 1.0 | 1.0 | 0.00 | 0.00 | 0.00 | 71 | 1008.7 |
| 20260508032305 | 35 | 153 | 0.0 | 0.0 | 0.00 | 0.00 | 0.00 | 71 | 1008.7 |
| 20260508031758 | 35 | 150 | 0.0 | 1.0 | 0.00 | 0.00 | 0.00 | 70 | 1008.7 |
| 20260508031255 | 35 | 161 | 0.0 | 0.0 | 0.00 | 0.00 | 0.00 | 69 | 1008.7 |
| 20260508030751 | 36 | 162 | 0.0 | 0.0 | 0.00 | 0.00 | 0.00 | 68 | 1009.0 |
| 20260508030249 | 36 | 162 | 0.0 | 0.0 | 0.00 | 0.00 | 0.00 | 67 | 1009.0 |
| 20260508025745 | 37 | 156 | 0.0 | 0.0 | 0.00 | 0.00 | 0.00 | 66 | 1008.7 |
| 20260508025242 | 37 | 154 | 0.0 | 0.0 | 0.00 | 0.00 | 0.00 | 65 | 1009.0 |
| 20260508024738 | 37 | 145 | 1.0 | 1.0 | 0.00 | 0.00 | 0.00 | 64 | 1008.7 |
| 20260508024235 | 38 | 151 | 0.0 | 1.0 | 0.00 | 0.00 | 0.00 | 64 | 1008.7 |
| 20260508023732 | 38 | 147 | 1.0 | 1.0 | 0.00 | 0.00 | 0.00 | 64 | 1008.7 |
| 20260508023230 | 39 | 151 | 0.0 | 1.0 | 0.00 | 0.00 | 0.00 | 62 | 1008.7 |
| 20260508022725 | 39 | 155 | 0.0 | 0.0 | 0.00 | 0.00 | 0.00 | 61 | 1008.7 |
| 20260508022222 | 40 | 154 | 0.0 | 0.0 | 0.00 | 0.00 | 0.00 | 60 | 1008.7 |
| 20260508021719 | 40 | 150 | 1.0 | 1.0 | 0.00 | 0.00 | 0.00 | 58 | 1008.7 |
| 20260508021214 | 41 | 160 | 0.0 | 0.0 | 0.00 | 0.00 | 0.00 | 57 | 1008.7 |
| 20260508020712 | 41 | 161 | 0.0 | 0.0 | 0.00 | 0.00 | 0.00 | 56 | 1008.7 |
| 20260508020209 | 42 | 162 | 0.0 | 0.0 | 0.00 | 0.00 | 0.00 | 56 | 1008.7 |
| 20260508015706 | 42 | 157 | 0.0 | 0.0 | 0.00 | 0.00 | 0.00 | 55 | 1008.7 |
| 20260508015203 | 43 | 158 | 0.0 | 1.0 | 0.00 | 0.00 | 0.00 | 56 | 1008.7 |
| 20260508014659 | 44 | 162 | 0.0 | 0.0 | 0.00 | 0.00 | 0.00 | 56 | 1008.7 |
| 20260508014155 | 44 | 166 | 0.0 | 0.0 | 0.00 | 0.00 | 0.00 | 55 | 1008.4 |
| 20260508013652 | 45 | 167 | 0.0 | 0.0 | 0.00 | 0.00 | 0.00 | 53 | 1008.4 |
| 20260508013148 | 45 | 177 | 0.0 | 0.0 | 0.00 | 0.00 | 0.00 | 52 | 1008.7 |
| 20260508012646 | 45 | 177 | 0.0 | 0.0 | 0.00 | 0.00 | 0.00 | 50 | 1008.4 |
| 20260508012143 | 46 | 171 | 0.0 | 0.0 | 0.00 | 0.00 | 0.00 | 50 | 1008.4 |
| 20260508011642 | 48 | 174 | 1.0 | 1.0 | 0.00 | 0.00 | 0.00 | 46 | 1008.7 |
| 20260508011139 | 48 | 166 | 0.0 | 0.0 | 0.00 | 0.00 | 0.00 | 46 | 1008.4 |
| 20260508010635 | 49 | 166 | 0.0 | 0.0 | 0.00 | 0.00 | 0.00 | 44 | 1008.4 |
| 20260508010133 | 50 | 166 | 0.0 | 0.0 | 0.00 | 0.00 | 0.00 | 44 | 1008.4 |
| 20260508005630 | 50 | 167 | 0.0 | 0.0 | 0.00 | 0.00 | 0.00 | 44 | 1008.4 |
| 20260508005126 | 50 | 180 | 1.0 | 1.0 | 0.00 | 0.00 | 0.00 | 44 | 1008.4 |
| 20260508004622 | 51 | 172 | 0.0 | 1.0 | 0.00 | 0.00 | 0.00 | 43 | 1008.7 |
| 20260508004119 | 51 | 171 | 0.0 | 0.0 | 0.00 | 0.00 | 0.00 | 43 | 1008.0 |
| 20260508003615 | 52 | 175 | 0.0 | 0.0 | 0.00 | 0.00 | 0.00 | 43 | 1008.4 |
| 20260508003113 | 52 | 174 | 0.0 | 0.0 | 0.00 | 0.00 | 0.00 | 41 | 1008.4 |
| 20260508002609 | 53 | 181 | 0.0 | 1.0 | 0.00 | 0.00 | 0.00 | 41 | 1008.4 |
| 20260508002107 | 53 | 158 | 1.0 | 2.0 | 0.00 | 0.00 | 0.00 | 40 | 1008.4 |
| 20260508001602 | 53 | 171 | 0.0 | 0.0 | 0.00 | 0.00 | 0.00 | 39 | 1008.4 |
| 20260508001059 | 53 | 192 | 1.0 | 1.0 | 0.00 | 0.00 | 0.00 | 38 | 1008.4 |
| 20260508000554 | 54 | 224 | 3.0 | 3.0 | 0.00 | 0.00 | 0.00 | 38 | 1008.4 |
| 20260508000052 | 54 | 188 | 1.0 | 1.0 | 0.00 | 0.00 | 0.00 | 39 | 1008.7 |
| 20260507235549 | 54 | 167 | 0.0 | 0.0 | 0.00 | 0.00 | 0.00 | 39 | 1008.4 |
| 20260507235046 | 54 | 175 | 1.0 | 1.0 | 0.00 | 0.00 | 0.00 | 40 | 1008.7 |
| 20260507234542 | 54 | 192 | 0.0 | 1.0 | 0.00 | 0.00 | 0.00 | 40 | 1008.7 |
| 20260507234039 | 53 | 175 | 0.0 | 0.0 | 0.00 | 0.00 | 0.00 | 40 | 1008.7 |
| 20260507233536 | 54 | 177 | 0.0 | 0.0 | 0.00 | 0.00 | 0.00 | 39 | 1008.7 |
| 20260507233035 | 55 | 177 | 1.0 | 1.0 | 0.00 | 0.00 | 0.00 | 37 | 1008.7 |
| 20260507232530 | 55 | 222 | 3.0 | 5.0 | 0.00 | 0.00 | 0.00 | 36 | 1008.4 |
| 20260507232028 | 56 | 205 | 1.0 | 1.0 | 0.00 | 0.00 | 0.00 | 36 | 1008.7 |
| 20260507231524 | 56 | 188 | 3.0 | 5.0 | 0.00 | 0.00 | 0.00 | 35 | 1008.7 |
| 20260507231022 | 56 | 128 | 2.0 | 3.0 | 0.00 | 0.00 | 0.00 | 36 | 1008.7 |
| 20260507230518 | 55 | 200 | 1.0 | 2.0 | 0.00 | 0.00 | 0.00 | 36 | 1008.7 |
| 20260507230015 | 56 | 230 | 3.0 | 3.0 | 0.00 | 0.00 | 0.00 | 35 | 1008.7 |
| 20260507225510 | 56 | 204 | 2.0 | 2.0 | 0.00 | 0.00 | 0.00 | 36 | 1008.7 |
| 20260507225007 | 54 | 210 | 1.0 | 1.0 | 0.00 | 0.00 | 0.00 | 37 | 1009.0 |
| 20260507224502 | 55 | 198 | 2.0 | 2.0 | 0.00 | 0.00 | 0.00 | 36 | 1009.0 |
| 20260507223959 | 56 | 164 | 1.0 | 2.0 | 0.00 | 0.00 | 0.00 | 36 | 1009.0 |
| 20260507223455 | 55 | 287 | 3.0 | 3.0 | 0.00 | 0.00 | 0.00 | 37 | 1009.0 |
| 20260507222952 | 54 | 357 | 3.0 | 3.0 | 0.00 | 0.00 | 0.00 | 37 | 1009.0 |
| 20260507222449 | 54 | 173 | 0.0 | 0.0 | 0.00 | 0.00 | 0.00 | 39 | 1008.7 |
| 20260507221945 | 54 | 191 | 2.0 | 2.0 | 0.00 | 0.00 | 0.00 | 37 | 1008.7 |
| 20260507221442 | 55 | 218 | 2.0 | 3.0 | 0.00 | 0.00 | 0.00 | 36 | 1009.0 |
| 20260507220938 | 57 | 174 | 2.0 | 3.0 | 0.00 | 0.00 | 0.00 | 35 | 1008.7 |
| 20260507220436 | 57 | 152 | 1.0 | 1.0 | 0.00 | 0.00 | 0.00 | 36 | 1008.7 |
| 20260507215933 | 58 | 224 | 4.0 | 6.0 | 0.00 | 0.00 | 0.00 | 34 | 1009.0 |
| 20260507215429 | 57 | 21 | 4.0 | 5.0 | 0.00 | 0.00 | 0.00 | 36 | 1008.7 |
| 20260507214926 | 58 | 206 | 4.0 | 6.0 | 0.00 | 0.00 | 0.00 | 34 | 1008.7 |
| 20260507214425 | 58 | 229 | 6.0 | 7.0 | 0.00 | 0.00 | 0.00 | 34 | 1008.7 |
| 20260507213919 | 56 | 195 | 3.0 | 3.0 | 0.00 | 0.00 | 0.00 | 36 | 1008.7 |
| 20260507213411 | 57 | 135 | 3.0 | 3.0 | 0.00 | 0.00 | 0.00 | 35 | 1009.0 |
| 20260507212908 | 57 | 159 | 1.0 | 1.0 | 0.00 | 0.00 | 0.00 | 36 | 1009.0 |
| 20260507212403 | 56 | 200 | 3.0 | 3.0 | 0.00 | 0.00 | 0.00 | 36 | 1009.0 |
| 20260507211900 | 57 | 223 | 3.0 | 3.0 | 0.00 | 0.00 | 0.00 | 34 | 1009.0 |
| 20260507211356 | 58 | 225 | 3.0 | 5.0 | 0.00 | 0.00 | 0.00 | 35 | 1009.0 |
| 20260507210854 | 57 | 168 | 1.0 | 1.0 | 0.00 | 0.00 | 0.00 | 37 | 1009.0 |
| 20260507210351 | 57 | 235 | 2.0 | 2.0 | 0.00 | 0.00 | 0.00 | 35 | 1009.0 |
| 20260507205847 | 57 | 181 | 3.0 | 5.0 | 0.00 | 0.00 | 0.00 | 36 | 1009.0 |
| 20260507205344 | 54 | 142 | 2.0 | 3.0 | 0.00 | 0.00 | 0.00 | 42 | 1009.4 |
| 20260507204840 | 53 | 186 | 1.0 | 2.0 | 0.00 | 0.00 | 0.00 | 39 | 1009.0 |
| 20260507204337 | 53 | 240 | 1.0 | 2.0 | 0.00 | 0.00 | 0.00 | 40 | 1009.4 |
| 20260507203835 | 53 | 327 | 2.0 | 2.0 | 0.00 | 0.00 | 0.00 | 39 | 1009.4 |
| 20260507203333 | 55 | 178 | 1.0 | 1.0 | 0.00 | 0.00 | 0.00 | 36 | 1009.4 |
| 20260507202829 | 55 | 178 | 1.0 | 1.0 | 0.00 | 0.00 | 0.00 | 39 | 1009.4 |
| 20260507202325 | 56 | 199 | 4.0 | 6.0 | 0.00 | 0.00 | 0.00 | 38 | 1009.4 |
| 20260507201821 | 56 | 264 | 4.0 | 6.0 | 0.00 | 0.00 | 0.00 | 37 | 1009.4 |
| 20260507201317 | 57 | 13 | 5.0 | 7.0 | 0.00 | 0.00 | 0.00 | 37 | 1009.4 |
| 20260507200813 | 56 | 84 | 2.0 | 2.0 | 0.00 | 0.00 | 0.00 | 39 | 1009.7 |
| 20260507200309 | 55 | 320 | 2.0 | 3.0 | 0.00 | 0.00 | 0.00 | 39 | 1009.4 |
| 20260507195805 | 56 | 193 | 3.0 | 5.0 | 0.00 | 0.00 | 0.00 | 39 | 1009.7 |
| 20260507195305 | 56 | 132 | 3.0 | 3.0 | 0.00 | 0.00 | 0.00 | 37 | 1009.7 |
| 20260507194800 | 52 | 177 | 0.0 | 0.0 | 0.00 | 0.00 | 0.00 | 43 | 1009.4 |
| 20260507194256 | 52 | 227 | 2.0 | 3.0 | 0.00 | 0.00 | 0.00 | 39 | 1009.7 |
| 20260507193753 | 53 | 169 | 3.0 | 3.0 | 0.00 | 0.00 | 0.00 | 38 | 1009.7 |
| 20260507193250 | 53 | 264 | 2.0 | 3.0 | 0.00 | 0.00 | 0.00 | 40 | 1010.0 |
| 20260507192745 | 55 | 353 | 4.0 | 5.0 | 0.00 | 0.00 | 0.00 | 39 | 1010.0 |
| 20260507192242 | 52 | 329 | 2.0 | 3.0 | 0.00 | 0.00 | 0.00 | 39 | 1009.7 |
| 20260507191738 | 53 | 304 | 3.0 | 5.0 | 0.00 | 0.00 | 0.00 | 40 | 1010.0 |
| 20260507191235 | 54 | 225 | 2.0 | 2.0 | 0.00 | 0.00 | 0.00 | 38 | 1009.7 |
| 20260507190732 | 53 | 187 | 1.0 | 1.0 | 0.00 | 0.00 | 0.00 | 43 | 1010.0 |
| 20260507190231 | 51 | 120 | 1.0 | 2.0 | 0.00 | 0.00 | 0.00 | 40 | 1009.7 |
| 20260507185729 | 52 | 99 | 1.0 | 1.0 | 0.00 | 0.00 | 0.00 | 41 | 1009.7 |
| 20260507185225 | 52 | 139 | 2.0 | 3.0 | 0.00 | 0.00 | 0.00 | 39 | 1010.0 |
| 20260507184723 | 54 | 91 | 4.0 | 6.0 | 0.00 | 0.00 | 0.00 | 38 | 1009.7 |
| 20260507184221 | 53 | 271 | 2.0 | 5.0 | 0.00 | 0.00 | 0.00 | 41 | 1009.7 |
| 20260507183717 | 53 | 150 | 2.0 | 2.0 | 0.00 | 0.00 | 0.00 | 41 | 1010.0 |
| 20260507183214 | 53 | 145 | 3.0 | 3.0 | 0.00 | 0.00 | 0.00 | 38 | 1010.0 |
| 20260507182711 | 52 | 157 | 3.0 | 3.0 | 0.00 | 0.00 | 0.00 | 40 | 1010.0 |
| 20260507182207 | 51 | 227 | 2.0 | 3.0 | 0.00 | 0.00 | 0.00 | 41 | 1010.0 |
| 20260507181703 | 53 | 171 | 2.0 | 3.0 | 0.00 | 0.00 | 0.00 | 43 | 1010.0 |
| 20260507181200 | 53 | 228 | 1.0 | 2.0 | 0.00 | 0.00 | 0.00 | 43 | 1010.0 |
| 20260507180656 | 52 | 184 | 2.0 | 2.0 | 0.00 | 0.00 | 0.00 | 39 | 1010.0 |
| 20260507180154 | 51 | 171 | 2.0 | 3.0 | 0.00 | 0.00 | 0.00 | 40 | 1010.4 |
| 20260507175649 | 50 | 226 | 1.0 | 1.0 | 0.00 | 0.00 | 0.00 | 43 | 1010.7 |